Location: Kerb�bon
(47.7970°N, 3.3487°W)
Time: 13:16:44
(UTC+00:00)

Cosmos 2082 Rocket - Pass Details

Date: 12 May 2021
Orbit: 834 x 852 km, 71.0° (Epoch: 18 June)

Event Time Altitude Azimuth Distance (km) Brightness Sun altitude
Rises 23:04:58 0° 321° (NW) 3,392 6.5 -22.2°
Reaches altitude 10° 23:07:57 10° 306° (NW) 2,454 5.3 -22.4°
Maximum altitude 23:12:03 21° 259° (W) 1,786 3.9 -22.6°
Enters shadow 23:13:56 18° 233° (SW) 1,945 3.9 -22.6°
